map of SVG home
Great Circle Mapper logo
SVG - Airport
Location
City:  Stavanger, Norway
Name:Sola
ICAO / IATA:ENZV / SVG

Details
Type:Airport (Aerodrome, Airfield)
Use:Public/Civil, International (customs port of entry)
Latitude:5852'36"N (58.876778)
Longitude:538'16"E (5.637856)
Datum:WGS 1984
Elevation:29 ft (9 m)
Runways:2
Longest:8385 × 197 ft (2556 × 60 m), paved

Time
Time Zone:UTC+1 (DST+2)
Local Time:

Weather
METAR:ENZV 230050Z 16008KT 9999 -RA FEW035 BKN057 09/05 Q1013
TAF:ENZV 222300Z 2300/2324 15010KT 9999 -RA BKN030
TEMPO 2300/2324 16015G25KT 4000 RADZ BKN010 PROB30 2306/2321 2000 DZRA BR BKN004

Related Locations
Nearby:
Farthest:CHT: 11385 mi / 18322 km
Waitangi [Tuuta], Chatham Islands, NZ

Find:

   beyond  
but within

Other Information
Maps:
NOTAMs:
Links:
Sources:

  
flag of Norway   

Airport Diagram

Airport diagram for SVG

Airport diagram (OBSOLETE) from NGA

Sectional Chart

Flight Planning
at skyvector.com

Satellite Image

Google Maps Satellite View

 

Copyright © 2004-2014 Karl L. Swartz. All rights reserved.
The Great Circle Mapper name and logo are trademarks of the Great Circle Mapper.
All other trademarks mentioned herein belong to their respective owners.
Please see credits for attibutions and further copyright information.

  Follow gcmap on Facebook Follow gcmap on Twitter

hCard Microformat

Geo Microformat